Hourly Weather Cedro

Today, 19 June, Saturday

Time Temperature Precipitation Wind Pressure Humidity
00:00 +25°C° 0 mm 2 mps 740 mmHg 55%
01:00 +25°C° 0 mm 2 mps 740 mmHg 57%
02:00 +24°C° 0 mm 3 mps 739 mmHg 59%
03:00 +24°C° 0 mm 3 mps 739 mmHg 61%
04:00 +22°C° 0 mm 3 mps 740 mmHg 67%
05:00 +21°C° 0 mm 3 mps 740 mmHg 73%
06:00 +20°C° 0 mm 3 mps 740 mmHg 79%
07:00 +24°C° 0 mm 3 mps 741 mmHg 69%
08:00 +26°C° 0 mm 4 mps 741 mmHg 58%
09:00 +29°C° 0 mm 4 mps 742 mmHg 47%
10:00 +30°C° 0 mm 4 mps 741 mmHg 43%
11:00 +33°C° 0 mm 5 mps 741 mmHg 39%
12:00 +35°C° 0 mm 5 mps 740 mmHg 34%
13:00 +35°C° 0 mm 5 mps 740 mmHg 34%
14:00 +34°C° 0 mm 5 mps 739 mmHg 35%
15:00 +34°C° 0 mm 5 mps 738 mmHg 35%
16:00 +32°C° 0 mm 4 mps 739 mmHg 41%
17:00 +29°C° 0 mm 2 mps 739 mmHg 47%
18:00 +27°C° 0 mm 1 mps 739 mmHg 53%
19:00 +27°C° 0 mm 1 mps 739 mmHg 53%
20:00 +27°C° 0 mm 1 mps 740 mmHg 53%
21:00 +27°C° 0 mm 2 mps 740 mmHg 53%
22:00 +27°C° 0 mm 2 mps 740 mmHg 55%
23:00 +26°C° 0 mm 2 mps 740 mmHg 58%

Tomorrow, 20 June, Sunday

Time Temperature Precipitation Wind Pressure Humidity
00:00 +25°C° 0 mm 2 mps 740 mmHg 60%
01:00 +25°C° 0 mm 2 mps 740 mmHg 64%
02:00 +24°C° 0 mm 2 mps 739 mmHg 69%
03:00 +23°C° 0 mm 2 mps 739 mmHg 73%
04:00 +23°C° 0 mm 2 mps 739 mmHg 74%
05:00 +21°C° 0 mm 2 mps 740 mmHg 76%
06:00 +21°C° 0 mm 2 mps 740 mmHg 77%
07:00 +24°C° 0 mm 3 mps 740 mmHg 69%
08:00 +27°C° 0 mm 3 mps 740 mmHg 60%
09:00 +30°C° 0 mm 3 mps 741 mmHg 51%
10:00 +33°C° 0 mm 3 mps 740 mmHg 45%
11:00 +35°C° 0 mm 3 mps 739 mmHg 39%
12:00 +37°C° 0 mm 3 mps 739 mmHg 33%
13:00 +36°C° 0 mm 3 mps 738 mmHg 35%
14:00 +35°C° 0 mm 3 mps 737 mmHg 38%
15:00 +34°C° 0 mm 3 mps 737 mmHg 41%
16:00 +33°C° 0 mm 3 mps 737 mmHg 44%
17:00 +31°C° 0 mm 3 mps 737 mmHg 47%
18:00 +30°C° 0 mm 2 mps 738 mmHg 49%
19:00 +29°C° 0 mm 2 mps 738 mmHg 53%
20:00 +28°C° 0 mm 2 mps 739 mmHg 56%
21:00 +28°C° 0 mm 2 mps 739 mmHg 60%
22:00 +27°C° 0 mm 2 mps 739 mmHg 63%
23:00 +26°C° 0 mm 2 mps 739 mmHg 66%

Day after tomorrow, 21 June, Monday

Time Temperature Precipitation Wind Pressure Humidity
00:00 +26°C° 0 mm 1 mps 739 mmHg 70%
01:00 +26°C° 0 mm 1 mps 739 mmHg 71%
02:00 +25°C° 0 mm 1 mps 739 mmHg 73%
03:00 +25°C° 0 mm 1 mps 738 mmHg 75%
04:00 +24°C° 0 mm 1 mps 739 mmHg 78%
05:00 +24°C° 0 mm 1 mps 739 mmHg 82%
06:00 +23°C° 0 mm 1 mps 739 mmHg 86%
07:00 +25°C° 0 mm 1 mps 740 mmHg 75%
08:00 +28°C° 0 mm 2 mps 740 mmHg 64%
09:00 +30°C° 0 mm 2 mps 740 mmHg 53%
10:00 +33°C° 0 mm 3 mps 740 mmHg 46%
11:00 +35°C° 0 mm 3 mps 739 mmHg 39%
12:00 +36°C° 0 mm 3 mps 738 mmHg 33%
13:00 +37°C° 0 mm 3 mps 738 mmHg 31%
14:00 +37°C° 0 mm 3 mps 737 mmHg 29%
15:00 +38°C° 0 mm 3 mps 736 mmHg 27%
16:00 +36°C° 0 mm 3 mps 736 mmHg 31%
17:00 +34°C° 0 mm 2 mps 737 mmHg 35%
18:00 +31°C° 0 mm 2 mps 737 mmHg 39%
19:00 +30°C° 0 mm 2 mps 737 mmHg 44%
20:00 +28°C° 0 mm 1 mps 738 mmHg 48%
21:00 +27°C° 0 mm 1 mps 738 mmHg 53%
22:00 +27°C° 0 mm 1 mps 738 mmHg 56%
23:00 +26°C° 0 mm 1 mps 738 mmHg 60%

22 June, Tuesday

Time Temperature Precipitation Wind Pressure Humidity
00:00 +26°C° 0 mm 1 mps 739 mmHg 63%
01:00 +25°C° 0 mm 1 mps 738 mmHg 69%
02:00 +24°C° 0 mm 1 mps 738 mmHg 75%
03:00 +23°C° 0 mm 1 mps 738 mmHg 81%
04:00 +23°C° 0 mm 1 mps 738 mmHg 83%
05:00 +22°C° 0 mm 1 mps 739 mmHg 86%
06:00 +21°C° 0 mm 1 mps 739 mmHg 88%
07:00 +24°C° 0 mm 1 mps 739 mmHg 74%
08:00 +27°C° 0 mm 2 mps 740 mmHg 61%
09:00 +30°C° 0 mm 2 mps 740 mmHg 47%
10:00 +33°C° 0 mm 3 mps 740 mmHg 41%
11:00 +35°C° 0 mm 3 mps 739 mmHg 34%
12:00 +36°C° 0 mm 3 mps 738 mmHg 28%
13:00 +37°C° 0 mm 3 mps 738 mmHg 27%
14:00 +37°C° 0 mm 3 mps 737 mmHg 25%
15:00 +38°C° 0 mm 4 mps 736 mmHg 24%
16:00 +36°C° 0 mm 3 mps 736 mmHg 27%
17:00 +32°C° 0 mm 2 mps 736 mmHg 31%
18:00 +30°C° 0 mm 2 mps 736 mmHg 35%
19:00 +29°C° 0 mm 1 mps 737 mmHg 37%
20:00 +28°C° 0 mm 1 mps 737 mmHg 40%
21:00 +27°C° 0 mm 1 mps 738 mmHg 42%
22:00 +26°C° 0 mm 1 mps 738 mmHg 44%
23:00 +25°C° 0 mm 1 mps 738 mmHg 46%

23 June, Wednesday

Time Temperature Precipitation Wind Pressure Humidity
00:00 +25°C° 0 mm 1 mps 738 mmHg 49%
01:00 +24°C° 0 mm 1 mps 738 mmHg 55%
02:00 +23°C° 0 mm 1 mps 738 mmHg 61%
03:00 +20°C° 0 mm 0 mps 738 mmHg 67%
04:00 +19°C° 0 mm 0 mps 738 mmHg 71%
05:00 +19°C° 0 mm 0 mps 738 mmHg 74%
06:00 +19°C° 0 mm 0 mps 739 mmHg 78%
07:00 +24°C° 0 mm 1 mps 739 mmHg 68%
08:00 +27°C° 0 mm 2 mps 739 mmHg 59%
09:00 +30°C° 0 mm 3 mps 740 mmHg 49%
10:00 +33°C° 0 mm 3 mps 739 mmHg 44%
11:00 +34°C° 0 mm 3 mps 738 mmHg 39%
12:00 +36°C° 0 mm 3 mps 738 mmHg 34%
13:00 +35°C° 0 mm 3 mps 737 mmHg 35%
14:00 +35°C° 0 mm 3 mps 737 mmHg 37%
15:00 +34°C° 0 mm 3 mps 736 mmHg 38%
16:00 +32°C° 0 mm 2 mps 737 mmHg 43%
17:00 +30°C° 0 mm 2 mps 737 mmHg 49%
18:00 +29°C° 0 mm 1 mps 737 mmHg 54%
19:00 +27°C° 0.4 mm 2 mps 738 mmHg 64%
20:00 +26°C° 0.4 mm 2 mps 738 mmHg 75%
21:00 +24°C° 0.4 mm 2 mps 739 mmHg 85%
22:00 +24°C° 0.7 mm 2 mps 739 mmHg 88%
23:00 +24°C° 0.7 mm 2 mps 739 mmHg 91%

24 June, Thursday

Time Temperature Precipitation Wind Pressure Humidity
00:00 +23°C° 0.7 mm 2 mps 739 mmHg 94%
01:00 +23°C° 0.1 mm 2 mps 738 mmHg 94%
02:00 +23°C° 0.1 mm 2 mps 738 mmHg 94%
03:00 +23°C° 0.1 mm 1 mps 738 mmHg 95%
04:00 +22°C° 0 mm 1 mps 738 mmHg 95%
05:00 +22°C° 0 mm 1 mps 739 mmHg 96%
06:00 +21°C° 0 mm 1 mps 739 mmHg 97%
07:00 +24°C° 0 mm 2 mps 739 mmHg 84%
08:00 +26°C° 0 mm 3 mps 740 mmHg 70%
09:00 +28°C° 0 mm 4 mps 740 mmHg 57%
10:00 +30°C° 0 mm 4 mps 740 mmHg 49%
11:00 +33°C° 0 mm 3 mps 739 mmHg 41%
12:00 +35°C° 0 mm 3 mps 738 mmHg 33%
13:00 +35°C° 0 mm 3 mps 737 mmHg 32%
14:00 +36°C° 0 mm 3 mps 737 mmHg 30%
15:00 +36°C° 0 mm 3 mps 736 mmHg 28%
16:00 +35°C° 0 mm 3 mps 736 mmHg 32%
17:00 +32°C° 0 mm 2 mps 736 mmHg 36%
18:00 +31°C° 0 mm 2 mps 736 mmHg 40%
19:00 +30°C° 0 mm 3 mps 737 mmHg 44%
20:00 +29°C° 0 mm 3 mps 738 mmHg 48%
21:00 +28°C° 0 mm 3 mps 739 mmHg 53%
22:00 +28°C° 0 mm 3 mps 739 mmHg 58%
23:00 +27°C° 0 mm 3 mps 739 mmHg 64%
Show more

We Need Your Consent

Meteoprog and our Service Providers may store and access personal data such as cookies, device identifiers or other similar technologies on your device and process such data to personalise content and ads, as well as provide social media features and to analyse the traffic.

  • Store and/or access information on your device

    Cookies, device identifiers or other information can be stored or accessed on your device for the purposes indicated above.

  • Personalised ads and content, ad and content measurement, audience insights, and products development

    Ads and content can be personalised based on a profile. More data can be added to better personalise ads and content. Ad and content performance can be measured. Insights about the audience who saw the ads and content can be derived. Such data can be used to develop or improve user’s experience, systems and software.

By clicking ‘I Agree’ you will allow the use of indicated cookies, device identifiers, web beacons or other similar technologies. Your settings can be changed in the browser on your device.

For certain purposes, legitimate interests may be relied on, rather than consent. You can read more about this in our Privacy and Cookie Policy.